Weather History for MZBZ - August, 2012

Change the Weather History Date:

Tuesday, August 28, 2012

  Actual Average Record
Temperature  
Mean Temperature 82 °F -  
Max Temperature 88 °F 88 °F 91 °F (1998)
Min Temperature 76 °F 75 °F 75 °F (1997)
Cooling Degree Days 17    
Growing Degree Days 32 (Base 50)    
Moisture  
Dew Point 77 °F    
Average Humidity 83    
Maximum Humidity 100    
Minimum Humidity 70    
Precipitation  
Precipitation 0.00 in 0.36 in - ()
Sea Level Pressure  
Sea Level Pressure 29.87 in    
Wind  
Wind Speed 3 mph ()    
Max Wind Speed 9 mph    
Max Gust Speed -    
Visibility 8.1 miles    
Events      
Averages and records for this station are not official NWS values.
T = Trace of Precipitation, MM = Missing Value Source: Averaged Metar Reports

Daily Weather History Graph

Daily Weather History Graph

Search for Another Location

Airport or City:

Trip Planner

Search our weather history database for the weather conditions in past years. The results will help you decide how hot, cold, wet, or windy it might be!

Date:

Astronomy

Aug. 28, 2012 Rise Set
Actual Time 5:38 AM CST 6:09 PM CST
Civil Twilight 5:16 AM CST 6:31 PM CST
Nautical Twilight 4:50 AM CST 6:57 PM CST
Astronomical Twilight 4:24 AM CST 7:23 PM CST
Moon 3:58 PM CST (8/28) 2:46 AM CST (8/28)
Length of Visible Light 13h 15m
Length of Day
12h 30m
Waxing Gibbous, 91% of the Moon is Illuminated
Aug 28
Waxing Gibbous
Aug 31
Full
Sep 8
Last Quarter
Sep 15
New
Sep 22
First Quarter

Hourly Weather History & Observations

Time (CST) Temp. Heat Index Dew Point Humidity Pressure Visibility Wind Dir Wind Speed Gust Speed Precip Events Conditions
12:00 AM 79 °F - 77 °F 91% 29.89 in 12 mi Calm Calm - -   Partly Cloudy
3:00 AM 78 °F - 77 °F 94% 29.86 in 12 mi Calm Calm - -   Scattered Clouds
5:00 AM 77.0 °F - 75.2 °F 94% 29.86 in 6.2 mi West 3.5 mph - N/A   Scattered Clouds
6:00 AM 76 °F - 75 °F 97% 29.88 in 12 mi West 3.5 mph - -  
6:00 AM 77.0 °F - 75.2 °F 94% 29.86 in 6.2 mi West 3.5 mph - N/A   Mostly Cloudy
7:00 AM 77.0 °F - 77.0 °F 100% 29.89 in 6.2 mi WNW 3.5 mph - N/A   Mostly Cloudy
8:00 AM 82.4 °F 90.9 °F 77.0 °F 84% 29.92 in 6.2 mi WNW 5.8 mph - N/A   Mostly Cloudy
9:00 AM 84 °F - 77 °F 74% 29.92 in 12 mi WNW 3.5 mph - -   Scattered Clouds
9:00 AM 84.2 °F 94.1 °F 77.0 °F 79% 29.92 in 6.2 mi WNW 3.5 mph - N/A   Mostly Cloudy
10:00 AM 86.0 °F 96.9 °F 77.0 °F 74% 29.92 in 6.2 mi Calm Calm - N/A   Scattered Clouds
11:00 AM 87.8 °F 99.7 °F 77.0 °F 70% 29.90 in 6.2 mi Calm Calm - N/A   Mostly Cloudy
12:00 PM 87.8 °F 102.5 °F 78.8 °F 75% 29.88 in 6.2 mi East 3.5 mph - N/A   Mostly Cloudy
1:00 PM 86.0 °F 96.9 °F 77.0 °F 74% 29.87 in 6.2 mi East 6.9 mph - N/A   Mostly Cloudy
2:00 PM 86.0 °F 99.3 °F 78.8 °F 79% 29.85 in 6.2 mi ENE 9.2 mph - N/A   Mostly Cloudy
3:00 PM 85 °F - 79 °F 76% 29.83 in 12 mi ENE 9.2 mph - -   Scattered Clouds
3:00 PM 86.0 °F 99.3 °F 78.8 °F 79% 29.82 in 6.2 mi ENE 9.2 mph - N/A   Mostly Cloudy
4:00 PM 84.2 °F 94.1 °F 77.0 °F 79% 29.80 in 6.2 mi ENE 5.8 mph - N/A   Mostly Cloudy
5:00 PM 84.2 °F 94.1 °F 77.0 °F 79% 29.81 in 6.2 mi East 5.8 mph - N/A   Mostly Cloudy
6:00 PM 84 °F - 78 °F 78% 29.84 in 12 mi ESE 3.5 mph - -   Scattered Clouds
6:00 PM 84.2 °F 96.1 °F 78.8 °F 84% 29.83 in 6.2 mi ESE 3.5 mph - N/A   Mostly Cloudy
9:00 PM 80 °F - 77 °F 88% 29.90 in 12 mi Calm Calm - -   Scattered Clouds